EW5612 Weather Reports


time (UTC)temp
C
wind
direction
speed
KPH
gust
KPH
rain 1hr
cm
rain 24hr
cm
rain mn
cm
humidity
%
barometer
mb
20260507135704 15 345 1.6 8.0 0.00 0.00 0.00 87 1016.6
20260507135204 15 344 0.0 8.0 0.00 0.00 0.00 87 1016.8
20260507134704 15 350 0.0 9.7 0.00 0.00 0.00 87 1017.1
20260507132704 15 354 0.0 0.0 0.00 0.00 0.00 88 1017.0
20260507131703 15 11 0.0 4.8 0.00 0.00 0.00 88 1016.7
20260507131203 15 344 0.0 8.0 0.00 0.00 0.00 88 1016.8
20260507130703 15 286 0.0 4.8 0.00 0.00 0.00 87 1016.7
20260507130203 15 16 0.0 4.8 0.00 0.00 0.00 87 1016.7
20260507125703 15 49 1.6 4.8 0.00 0.00 0.00 88 1016.5
20260507125203 15 9 0.0 4.8 0.00 0.00 0.00 88 1016.5
20260507124704 15 47 0.0 14.5 0.00 0.00 0.00 89 1016.6
20260507124203 15 322 0.0 3.2 0.00 0.00 0.00 89 1016.2
20260507123704 15 340 0.0 4.8 0.00 0.00 0.00 90 1016.1
20260507122705 15 309 0.0 8.0 0.00 0.00 0.00 90 1016.2
20260507121703 15 277 0.0 1.6 0.00 0.00 0.00 90 1016.2
20260507121203 15 53 0.0 1.6 0.00 0.00 0.00 90 1016.3
20260507120703 15 347 0.0 3.2 0.00 0.00 0.00 90 1016.1
20260507115704 15 0 0.0 19.3 0.00 0.00 0.00 90 1015.9
20260507115204 15 346 0.0 1.6 0.00 0.00 0.00 90 1015.7
20260507114704 15 328 0.0 1.6 0.00 0.00 0.00 90 1015.7
20260507114204 15 271 0.0 3.2 0.00 0.00 0.00 90 1015.4
20260507113704 15 27 0.0 4.8 0.00 0.00 0.00 90 1015.5
20260507113204 15 6 0.0 4.8 0.00 0.00 0.00 90 1015.6
20260507112203 15 325 0.0 1.6 0.00 0.00 0.00 90 1015.5
20260507111704 15 319 1.6 14.5 0.00 0.00 0.00 90 1015.5
20260507111203 15 32 0.0 3.2 0.00 0.00 0.00 90 1015.4
20260507110703 15 339 0.0 1.6 0.00 0.00 0.00 90 1015.7
20260507110203 15 302 0.0 3.2 0.00 0.00 0.00 90 1015.3
20260507105704 15 328 0.0 4.8 0.00 0.00 0.00 90 1015.3
20260507105204 15 307 0.0 9.7 0.00 0.00 0.00 90 1014.9
20260507103704 15 2 0.0 9.7 0.00 0.00 0.00 89 1015.0
20260507103203 15 326 0.0 1.6 0.00 0.00 0.00 89 1015.2
20260507102704 15 14 0.0 1.6 0.00 0.00 0.00 89 1015.1
20260507101704 15 322 0.0 3.2 0.00 0.00 0.00 88 1015.1
20260507101204 15 311 0.0 4.8 0.00 0.00 0.00 88 1015.1
20260507100704 15 47 0.0 1.6 0.00 0.00 0.00 88 1015.1
20260507100204 15 273 0.0 4.8 0.00 0.00 0.00 88 1015.4
20260507095704 16 328 0.0 1.6 0.00 0.00 0.00 88 1015.1
20260507095204 16 297 0.0 1.6 0.00 0.00 0.00 87 1015.0
20260507094704 16 254 0.0 0.0 0.00 0.00 0.00 87 1015.0
20260507094203 16 252 0.0 1.6 0.00 0.00 0.00 87 1015.0
20260507093704 16 11 0.0 1.6 0.00 0.00 0.00 87 1014.7
20260507093204 16 301 0.0 0.0 0.00 0.00 0.00 87 1014.8
20260507092704 16 24 0.0 1.6 0.00 0.00 0.00 87 1014.8
20260507092204 16 352 0.0 4.8 0.00 0.00 0.00 87 1014.7
20260507091703 16 290 0.0 4.8 0.00 0.00 0.00 87 1014.6
20260507091203 16 319 0.0 0.0 0.00 0.00 0.00 87 1014.5
20260507090703 16 336 0.0 0.0 0.00 0.00 0.00 86 1014.5
20260507090203 16 310 0.0 0.0 0.00 0.00 0.00 86 1014.3
20260507085703 16 39 0.0 0.0 0.00 0.00 0.00 86 1014.2
20260507085203 16 32 0.0 0.0 0.00 0.00 0.00 86 1014.2
20260507084703 16 351 0.0 1.6 0.00 0.00 0.00 86 1014.2
20260507084204 16 12 0.0 1.6 0.00 0.00 0.00 86 1014.1
20260507083703 16 306 0.0 1.6 0.00 0.00 0.00 86 1014.3
20260507083204 16 322 0.0 0.0 0.00 0.00 0.00 86 1014.1
20260507082704 16 37 0.0 0.0 0.00 0.00 0.00 86 1014.4
20260507082204 16 36 0.0 0.0 0.00 0.00 0.00 86 1014.4
20260507081703 16 97 0.0 0.0 0.00 0.00 0.00 86 1014.0
20260507081204 16 330 0.0 1.6 0.00 0.00 0.00 86 1013.9
20260507080206 16 321 0.0 1.6 0.00 0.00 0.00 85 1014.0
20260507075704 16 338 0.0 0.0 0.00 0.00 0.00 85 1014.0
20260507075204 16 314 0.0 0.0 0.00 0.00 0.00 85 1014.1
20260507074203 16 344 0.0 0.0 0.00 0.00 0.00 85 1014.1
20260507073704 16 32 0.0 3.2 0.00 0.00 0.00 85 1014.2
20260507073203 16 30 0.0 0.0 0.00 0.00 0.00 85 1014.3
20260507072704 16 310 0.0 3.2 0.00 0.00 0.00 85 1014.4
20260507072203 16 29 0.0 3.2 0.00 0.00 0.00 85 1014.0
20260507071704 16 332 0.0 0.0 0.00 0.00 0.00 85 1013.9
20260507071204 16 310 0.0 0.0 0.00 0.00 0.00 85 1014.5
20260507070203 16 0 1.6 9.7 0.00 0.00 0.00 85 1014.1
20260507065704 16 86 0.0 1.6 0.00 0.00 0.00 85 1014.3
20260507065204 16 28 0.0 1.6 0.00 0.00 0.00 85 1014.5
20260507064704 16 337 0.0 1.6 0.00 0.00 0.00 85 1014.4
20260507064204 16 26 0.0 0.0 0.00 0.00 0.00 85 1014.5
20260507063703 16 337 0.0 4.8 0.00 0.00 0.00 85 1013.5
20260507063203 16 45 0.0 4.8 0.00 0.00 0.00 85 1014.1
20260507062703 16 13 0.0 1.6 0.00 0.00 0.00 85 1014.1
20260507062203 16 166 0.0 3.2 0.00 0.00 0.00 85 1014.0
20260507061704 16 302 0.0 1.6 0.00 0.00 0.00 85 1014.3
20260507061203 16 52 0.0 3.2 0.00 0.00 0.00 85 1013.6
20260507060204 16 357 0.0 1.6 0.00 0.00 0.00 85 1013.6
20260507055704 16 328 0.0 0.0 0.00 0.00 0.00 85 1014.1
20260507055203 16 295 0.0 0.0 0.00 0.00 0.00 85 1014.0
20260507054204 16 5 0.0 3.2 0.00 0.00 0.00 85 1014.0
20260507053204 16 313 0.0 1.6 0.00 0.00 0.00 85 1013.9
20260507052203 16 321 0.0 1.6 0.00 0.00 0.00 85 1014.2
20260507051704 16 298 0.0 1.6 0.00 0.00 0.00 85 1014.2
20260507051204 16 19 0.0 1.6 0.00 0.00 0.00 85 1014.2
20260507050703 16 350 0.0 3.2 0.00 0.00 0.00 85 1014.0
20260507050203 16 334 0.0 1.6 0.00 0.00 0.00 85 1014.1
20260507045703 16 356 0.0 1.6 0.00 0.00 0.00 85 1014.1
20260507045204 16 18 0.0 1.6 0.00 0.00 0.00 85 1014.1
20260507044203 16 330 0.0 1.6 0.00 0.00 0.00 85 1013.9
20260507043704 16 332 0.0 3.2 0.00 0.00 0.00 85 1014.0
20260507043203 16 13 0.0 1.6 0.00 0.00 0.00 85 1013.9
20260507042204 16 351 0.0 4.8 0.00 0.00 0.00 85 1013.9
20260507041703 16 352 0.0 4.8 0.00 0.00 0.00 85 1013.7
20260507041203 16 349 0.0 3.2 0.00 0.00 0.00 85 1013.9
20260507040704 16 319 1.6 4.8 0.00 0.00 0.00 84 1014.0
20260507035703 16 307 0.0 4.8 0.00 0.00 0.00 84 1013.8
20260507035203 16 355 0.0 1.6 0.00 0.00 0.00 84 1014.0
20260507034704 16 319 0.0 8.0 0.00 0.00 0.00 84 1013.8
20260507034204 16 44 0.0 8.0 0.00 0.00 0.00 84 1013.7
20260507033703 17 58 0.0 1.6 0.00 0.00 0.00 84 1013.4
20260507033204 17 37 0.0 4.8 0.00 0.00 0.00 84 1013.4
20260507032704 17 341 0.0 12.9 0.00 0.00 0.00 84 1013.6
20260507032203 17 316 0.0 8.0 0.00 0.00 0.00 84 1013.7
20260507031703 17 153 0.0 1.6 0.00 0.00 0.00 84 1013.3
20260507030203 17 310 0.0 4.8 0.00 0.00 0.00 85 1013.9
20260507025704 17 168 0.0 1.6 0.00 0.00 0.00 85 1013.4
20260507024703 17 69 0.0 1.6 0.00 0.00 0.00 85 1013.0
20260507024203 17 41 0.0 1.6 0.00 0.00 0.00 85 1012.7
20260507023703 17 357 0.0 4.8 0.00 0.00 0.00 85 1012.6
20260507023203 17 3 0.0 3.2 0.00 0.00 0.00 85 1013.0
20260507022703 17 316 0.0 1.6 0.00 0.00 0.00 85 1012.6
20260507022204 17 306 0.0 1.6 0.00 0.00 0.00 84 1012.5
20260507021704 17 6 0.0 1.6 0.00 0.00 0.00 84 1012.3
20260507021204 17 10 0.0 0.0 0.00 0.00 0.00 84 1012.2
20260507020703 17 329 0.0 1.6 0.00 0.00 0.00 84 1013.1
20260507020203 17 339 0.0 0.0 0.00 0.00 0.00 84 1013.1
20260507015203 17 27 0.0 1.6 0.00 0.00 0.00 84 1011.9
20260507014703 17 90 0.0 4.8 0.00 0.00 0.00 84 1012.2
20260507014204 17 319 0.0 0.0 0.00 0.00 0.00 84 1012.0
20260507013203 17 41 0.0 0.0 0.00 0.00 0.00 84 1012.2
20260507012703 17 308 0.0 0.0 0.00 0.00 0.00 84 1011.9
20260507012203 17 67 0.0 3.2 0.00 0.00 0.00 84 1012.0
20260507011703 17 338 0.0 1.6 0.00 0.00 0.00 84 1011.8
20260507011203 17 354 0.0 0.0 0.00 0.00 0.00 84 1011.9
20260507010704 17 304 0.0 1.6 0.00 0.00 0.00 84 1011.6
20260507010203 17 339 0.0 4.8 0.00 0.00 0.00 84 1011.5
20260507005704 17 47 0.0 1.6 0.00 0.00 0.00 84 1011.3
20260507005204 17 352 0.0 1.6 0.00 0.00 0.00 83 1011.4
20260507004703 17 328 0.0 8.0 0.00 0.00 0.00 83 1011.3
20260507004203 17 312 1.6 8.0 0.00 0.00 0.00 83 1011.3
20260507003703 17 305 0.0 3.2 0.00 0.00 0.00 83 1011.1
20260507003203 17 8 1.6 8.0 0.00 0.00 0.00 83 1011.3
20260507002703 17 326 1.6 4.8 0.00 0.00 0.00 83 1011.2
20260507002203 17 272 0.0 0.0 0.00 0.00 0.00 83 1011.0
20260507001704 17 345 1.6 8.0 0.00 0.00 0.00 83 1011.1
20260507001203 17 10 1.6 4.8 0.00 0.00 0.00 83 1010.9
20260507000704 17 16 3.2 14.5 0.00 0.00 0.00 83 1011.1
20260507000205 17 4 3.2 12.9 0.00 0.00 0.00 82 1011.0
20260506235204 17 280 4.8 12.9 0.00 0.00 0.00 82 1010.9
20260506234704 17 334 3.2 12.9 0.00 0.00 0.00 82 1010.8
20260506234203 17 355 4.8 12.9 0.00 0.00 0.00 82 1010.8
20260506232703 17 302 4.8 14.5 0.00 0.00 0.00 81 1010.8
20260506232203 18 267 6.4 14.5 0.00 0.00 0.00 80 1010.8
20260506231703 18 287 6.4 16.1 0.00 0.00 0.00 80 1010.6
20260506231204 18 11 4.8 16.1 0.00 0.00 0.00 80 1010.6
20260506230703 18 349 3.2 14.5 0.00 0.00 0.00 80 1010.5
20260506225703 18 281 4.8 16.1 0.00 0.00 0.00 79 1010.4
20260506225204 18 345 4.8 12.9 0.00 0.00 0.00 79 1010.3
20260506224704 18 315 4.8 14.5 0.00 0.00 0.00 78 1010.3
20260506223704 19 327 4.8 16.1 0.00 0.00 0.00 78 1010.3
20260506223204 19 359 3.2 11.3 0.00 0.00 0.00 78 1010.3
20260506222204 20 343 4.8 12.9 0.00 0.00 0.00 77 1010.4
20260506221704 20 288 6.4 14.5 0.00 0.00 0.00 76 1010.2
20260506220703 20 12 4.8 14.5 0.00 0.00 0.00 76 1010.1
20260506220204 21 327 4.8 16.1 0.00 0.00 0.00 75 1010.0
20260506215704 21 329 6.4 14.5 0.00 0.00 0.00 76 1009.8
20260506215204 21 16 6.4 19.3 0.00 0.00 0.00 77 1009.9
20260506214704 21 303 4.8 16.1 0.00 0.00 0.00 76 1009.9
20260506214203 21 26 4.8 19.3 0.00 0.00 0.00 76 1009.7
20260506213204 21 335 3.2 16.1 0.00 0.00 0.00 78 1009.6
20260506212204 21 325 6.4 16.1 0.00 0.00 0.00 77 1009.9
20260506211703 21 347 8.0 16.1 0.00 0.00 0.00 77 1010.1
20260506211204 21 283 6.4 19.3 0.00 0.00 0.00 77 1010.1
20260506210704 22 333 8.0 16.1 0.00 0.00 0.00 76 1010.1
20260506210203 22 336 8.0 19.3 0.00 0.00 0.00 75 1010.1
20260506205703 22 333 6.4 14.5 0.00 0.00 0.00 76 1010.1
20260506205203 22 340 8.0 16.1 0.00 0.00 0.00 76 1009.9
20260506204203 23 65 4.8 14.5 0.00 0.00 0.00 76 1010.0
20260506203703 23 311 4.8 16.1 0.00 0.00 0.00 77 1009.9
20260506203204 23 302 1.6 19.3 0.00 0.00 0.00 77 1009.7
20260506202704 23 336 3.2 19.3 0.00 0.00 0.00 77 1009.7
20260506202204 24 30 1.6 8.0 0.00 0.00 0.00 78 1009.6
20260506201703 24 319 1.6 19.3 0.00 0.00 0.00 77 1009.5
20260506201204 25 344 3.2 12.9 0.00 0.00 0.00 77 1009.4
20260506200704 25 315 1.6 19.3 0.00 0.00 0.00 78 1009.4
20260506200204 25 301 1.6 12.9 0.00 0.00 0.00 77 1009.3
20260506195703 25 352 3.2 11.3 0.00 0.00 0.00 77 1009.3
20260506195204 25 268 0.0 9.7 0.00 0.00 0.00 78 1009.4
20260506194704 25 329 0.0 0.0 0.00 0.00 0.00 77 1009.6
20260506194203 25 302 1.6 4.8 0.00 0.00 0.00 77 1009.4
20260506193703 25 313 0.0 0.0 0.00 0.00 0.00 76 1009.5
20260506193204 25 296 0.0 3.2 0.00 0.00 0.00 78 1009.6
20260506192704 25 19 0.0 0.0 0.00 0.00 0.00 79 1009.5
20260506191704 25 314 0.0 0.0 0.00 0.00 0.00 78 1009.4
20260506191204 25 284 0.0 0.0 0.00 0.00 0.00 78 1009.4
20260506185703 23 330 0.0 0.0 0.00 0.00 0.00 80 1009.7
20260506184204 23 327 0.0 0.0 0.00 0.00 0.00 82 1009.6
20260506183704 22 352 1.6 4.8 0.00 0.00 0.00 83 1009.6
20260506183204 22 5 0.0 0.0 0.00 0.00 0.00 81 1009.6
20260506182704 22 308 0.0 8.0 0.00 0.00 0.00 83 1009.6
20260506182204 22 339 1.6 8.0 0.00 0.00 0.00 84 1009.7
20260506181704 21 322 0.0 0.0 0.00 0.00 0.00 86 1009.7
20260506181204 21 325 0.0 4.8 0.00 0.00 0.00 86 1009.8
20260506180703 21 22 1.6 8.0 0.00 0.00 0.00 86 1009.7
20260506180203 20 331 0.0 0.0 0.00 0.00 0.00 87 1009.8
20260506175204 20 4 0.0 0.0 0.00 0.00 0.00 88 1009.9
20260506174703 19 311 0.0 0.0 0.00 0.00 0.00 88 1009.9
20260506174204 19 17 0.0 0.0 0.00 0.00 0.00 88 1010.0
20260506173704 18 348 0.0 0.0 0.00 0.00 0.00 89 1010.0
20260506172703 18 315 0.0 0.0 0.00 0.00 0.00 88 1010.4
20260506171703 18 318 0.0 4.8 0.00 0.00 0.00 88 1010.7
20260506171203 18 281 1.6 11.3 0.00 0.00 0.00 88 1010.9
20260506170704 18 45 1.6 12.9 0.00 0.00 0.00 88 1011.1
20260506170204 18 4 1.6 16.1 0.00 0.00 0.00 87 1011.0
20260506165704 18 317 1.6 16.1 0.00 0.00 0.00 87 1011.0
20260506164704 20 352 3.2 19.3 0.00 0.00 0.00 86 1011.0
20260506163704 21 320 6.4 19.3 0.00 0.00 0.00 82 1011.0
20260506162704 23 302 6.4 16.1 0.00 0.00 0.00 80 1011.1
20260506162204 25 328 0.0 3.2 0.00 0.00 0.00 91 1010.8
20260506161704 25 0 0.0 0.0 0.00 0.00 0.00 91 1010.6
20260506161204 25 55 0.0 0.0 0.00 0.00 0.00 91 1010.6
20260506160203 25 60 0.0 0.0 0.00 0.00 0.00 92 1010.8
20260506155704 25 86 0.0 0.0 0.00 0.00 0.00 92 1010.6
20260506155204 25 91 0.0 0.0 0.00 0.00 0.00 92 1010.3
20260506154703 25 100 0.0 0.0 0.00 0.00 0.00 92 1010.2
20260506154203 25 100 0.0 0.0 0.00 0.00 0.00 92 1010.2
20260506153703 25 99 0.0 0.0 0.00 0.00 0.00 92 1009.9
20260506153204 25 106 0.0 0.0 0.00 0.00 0.00 92 1009.6
20260506152203 24 106 0.0 0.0 0.00 0.00 0.00 92 1009.6
20260506151704 24 106 0.0 0.0 0.00 0.00 0.00 92 1009.6
20260506151204 24 106 0.0 0.0 0.00 0.00 0.00 92 1009.3
20260506150704 24 106 0.0 0.0 0.00 0.00 0.00 92 1009.1
20260506150203 24 106 0.0 0.0 0.00 0.00 0.00 92 1009.1
20260506145203 24 106 0.0 0.0 0.00 0.00 0.00 93 1008.9
20260506144703 24 106 0.0 0.0 0.00 0.00 0.00 93 1008.9
20260506144204 24 106 0.0 0.0 0.00 0.00 0.00 93 1009.0
20260506143204 24 106 0.0 0.0 0.00 0.00 0.00 93 1009.1
20260506142704 24 106 0.0 0.0 0.00 0.00 0.00 93 1009.1
20260506141703 24 106 0.0 0.0 0.00 0.00 0.00 93 1009.2
20260506141203 24 106 0.0 0.0 0.00 0.00 0.00 93 1009.0